TIANXING-1 02 (58756 NORAD) Tracking and Keplerian Element Data

This shows tracking and keplerian element data for the satellite.

Feedback or suggestion? Click here.




ElementValue
Catalog58756
NameTIANXING-1 02
Epoch Orbit32
Epoch Day13.16442367
Epoch Year2024
RAAN86.6834
Inclination95.1297
Eccentricity0.0025488
Argument of Perigee188.1394
Mean Anonmoly171.9469
Mean Motion15.79220072
Decay Rate0.00110358
L11 58756U 24008A 24013.16442367 .00110358 00000+0 59926-3 0 9999
L22 58756 95.1297 86.6834 0025488 188.1394 171.9469 15.79220072 329



Live tracking and technical data element details for TIANXING-1 02 (NORAD 58756). TIANXING-1 02 can be tracked NOW for your location showing map with azimuth and elevation plus other details from your city location.







IsCatalogInMostPopularTable: catalog: 58756, numindb: 27
Update: records affected: 1



GetName: 58756 TIANXING-1 02

Hit Count: updated at: Wed, 17 Apr 2024 02:54:39 GMT